sat.trackr.live / text

‹ back to catalog

ZHUHAI-1 03B

NORAD 44536 · 2019-060C

PAYLOAD ACTIVE UNKNOWN

§ Identity

Operator
Country
PRC
Launch date
2019-09-19
Launch site
JSC
Launch vehicle
Mass (kg)
RCS (m²)

External: N2YO · Heavens-Above · Gunter

§ Orbital elements

Epoch: 2026-09-20T04:34:39.486720Z

Period
92.35 min
Inclination
97.5620°
Eccentricity
0.0006885
Mean motion
15.59294002 rev/d
Perigee alt
385.0 km
Apogee alt
394.4 km
Semi-major
6,767.8 km
B*
3.5098e-4
RAAN
66.5379°
Arg perigee
331.2241°
Mean anomaly
28.8634°
Rev number
39,110

§ Raw data

ZHUHAI-1 03B1 44536U 19060C   26263.19073480  .00027566  00000+0  35098-3 0  99922 44536  97.5620  66.5379 0006885 331.2241  28.8634 15.59294002391104

JSON: /api/v1/satellites/44536 · /tle

For live sub-satellite position, see the globe view (requires WebGL).

§ Visibility from observer

Set your observer location to see the next 7 days of passes ≥ 10°. The values pass through the URL so the page stays shareable.

No JS? Fill the form by hand. The geolocation button needs JavaScript.

§ Radio — SatNOGS DB

ModeDescriptionDownlinkUplink
FM S-band telemetry 2.249 GHz

1 transmitter · refreshed weekly from db.satnogs.org